STARLINK-32839, 63077

Orbit data source: Space-Track

STARLINK-32839, 63077 is a payload satellite owned by SpaceX/Seattle (US) in LEO that was launched on Sun, 23 Feb 2025 UTC via an FALCON 9 launch vehicle from the Air Force Western Test Range (AFWTR). Payload-class satellites include a variety of spacecraft equipped with specific instruments for various scientific and technological missions. These include communications satellites like Starlink; space stations such as the ISS; scientific satellites like the Hubble; Earth observation satellites from companies like Planet Labs, Umbra, and HawkEye 360; GPS; miniature CubeSats for education and research; and military/defense satellites.

Loading next visibility...
Identifier
63077, 2025-037A
Orbit
LEO
Country
Flag of USUS
Related business
Manufacturer
SpaceX/Seattle
Mission
Operational Commercial Communications
Bus & Motor
STARLINK V2M, Unknown motor
Mass
730 kg wet, ~700 kg dry
Launch date (UTC)
2025-02-23 (1 year ago)
Launch vehicle
FALCON 9
Launch site
Air Force Western Test Range (AFWTR)
Object type
Payload
Rocket body
Debris
Shape & HBR
Box + 2 Pan, 17.7 m
Radar Cross Section
33.884 m², Large (>1 m²)

Expand to show TLE details & history
Last TLE update: 16 hours ago

TLE from 16 hours ago
0 STARLINK-32839
1 63077U 25037A   26171.19137498  .00014884  00000-0  12516-2 0  9991
2 63077  70.0013  96.1027 0002685 272.5965  87.4887 14.98362070 73943
Epoch: 2026-06-20T04:35Z
TLE epoch observation values (Epoch: 2026-06-20T04:35:34.798Z)
Latitude
0.00002°
Longitude
118.79817°
Altitude
574.299 km
Speed
7.574 km/s
True Right ascension
06h 24m 24s
True Declination
0° 00' 00"
Sunlit
Object was in daylight at epoch
Visualization orbit readout
Latitude
Unknown
Longitude
Unknown
Altitude
Unknown
Speed
Unknown
Apparent Right ascension
Unknown
Apparent Declination
Unknown
Sunlit
N/A
Visualization observer readout
Local Sidereal Time
07:17:14
Azimuth
Unknown
Elevation
Unknown
Doppler factor
Unknown
Orbital elements
Apogee altitude
571.77 km
Perigee altitude
568.039 km
Semi-major axis
6,948.042 km
Eccentricity
0.00027
Inclination
70.0013°
RAAN
96.1027°
Arg. of periapsis
272.5965°
True anomaly
87.51944°
Mean anomaly
87.4887°
Eccentric anomaly
87.50407°
Mean motion
3.74757 °/min
Orbital period
96.06 mins
BSTAR
0.0012516
Loading maneuver chart data...
Computing Atmospheric mass density...
Loading historical data...
Loading historical data...
Loading historical data...
Loading historical data...
Loading historical data...
Loading historical data...
Loading historical data...

Documentation

Showing up to 5 results
|